This demonstration page uses our WeatherBlox Daily Observations layout. Learn more.

Left ArrowRight Arrow

Hourly Observations for May 25, 2022

Temp ( °F °C ) Dew Point ( °F °C ) Humidity (%) Winds ( mph kmh ) Pressure ( in mb ) Visibility ( mi km ) Precip ( " mm )
12:53 am 00:53 Clear 79 26.1 43 6.1 28 28 NNW 7 11 29.80 1009 10 16 0.00 0.00
1:53 am 01:53 Clear 77 25 44 6.7 31 31 N 6 9 29.80 1009 10 16 0.00 0.00
2:53 am 02:53 Clear 78 25.6 44 6.7 30 30 NNW 7 11 29.80 1009 10 16 0.00 0.00
3:53 am 03:53 Clear 79 26.1 44 6.7 29 29 NNW 9 15 29.80 1009 10 16 0.00 0.00
4:53 am 04:53 Clear 76 24.4 45 7.2 33 33 NW 8 13 29.80 1009 10 16 0.00 0.00
5:53 am 05:53 Sunny 75 23.9 45 7.2 34 34 NNW 8 13 29.80 1009 10 16 0.00 0.00
6:53 am 06:53 Sunny 75 23.9 46 7.8 36 36 NNW 7 11 29.81 1010 10 16 0.00 0.00
7:53 am 07:53 Sunny 80 26.7 46 7.8 30 30 N 13 20 29.81 1010 10 16 0.00 0.00
8:53 am 08:53 Sunny 84 28.9 46 7.8 27 27 N 13 20 29.81 1010 10 16 0.00 0.00
9:53 am 09:53 Sunny 87 30.6 46 7.8 24 24 N 15 24 29.80 1009 10 16 0.00 0.00
10:53 am 10:53 Sunny 90 32.2 46 7.8 22 22 NNW 12 19 29.79 1009 10 16 0.00 0.00
11:53 am 11:53 Sunny 95 35 45 7.2 18 18 NNW 10 17 29.77 1008 10 16 0.00 0.00
12:53 pm 12:53 Sunny 97 36.1 34 1.1 11 11 NNW 8 13 29.75 1008 10 16 0.00 0.00
1:53 pm 13:53 Sunny 99 37.2 15 -9.4 5 5 NW 8 13 29.73 1007 10 16 0.00 0.00
2:53 pm 14:53 Sunny 101 38.3 19 -7.2 5 5 VRB 5 7 29.71 1006 10 16 0.00 0.00
3:53 pm 15:53 Sunny 102 38.9 17 -8.3 5 5 NE 5 7 29.70 1006 10 16 0.00 0.00
4:53 pm 16:53 Sunny 101 38.3 19 -7.2 5 5 VRB 5 7 29.68 1005 10 16 0.00 0.00
5:53 pm 17:53 Sunny 100 37.8 21 -6.1 6 6 VRB 3 6 29.67 1005 10 16 0.00 0.00
6:53 pm 18:53 Sunny 99 37.2 21 -6.1 6 6 SE 5 7 29.66 1004 10 16 0.00 0.00
7:53 pm 19:53 Sunny 96 35.6 28 -2.2 9 9 SE 3 6 29.65 1004 10 16 0.00 0.00
8:53 pm 20:53 Clear 83 28.3 36 2.2 19 19 W 3 6 29.66 1005 10 16 0.00 0.00
9:53 pm 21:53 Clear 78 25.6 42 5.6 28 28 Calm 29.69 1005 10 16 0.00 0.00
10:53 pm 22:53 Clear 79 26.1 39 3.9 24 24 NNE 3 6 29.70 1006 10 16 0.00 0.00
11:53 pm 23:53 Clear 76 24.4 39 3.9 26 26 N 6 9 29.70 1006 10 16 0.00 0.00

Powered by AerisWeather